sat.trackr.live / text

‹ back to catalog

STARLINK-3127

NORAD 49450 · 2021-104AU

PAYLOAD ACTIVE UNKNOWN

§ Identity

Operator
Country
US
Launch date
2021-11-13
Launch site
AFETR
Launch vehicle
Mass (kg)
RCS (m²)

Purposes: comms

External: N2YO · Heavens-Above · Gunter

§ Orbital elements

Epoch: 2026-09-20T02:48:57.865824Z

Period
93.85 min
Inclination
53.1623°
Eccentricity
0.0001163
Mean motion
15.34392471 rev/d
Perigee alt
461.9 km
Apogee alt
463.5 km
Semi-major
6,840.9 km
B*
3.0107e-5
RAAN
53.8433°
Arg perigee
83.8709°
Mean anomaly
276.2426°
Rev number
26,855

§ Raw data

STARLINK-31271 49450U 21104AU  26263.11733641  .00000641  00000+0  30107-4 0  99902 49450  53.1623  53.8433 0001163  83.8709 276.2426 15.34392471268550

JSON: /api/v1/satellites/49450 · /tle

For live sub-satellite position, see the globe view (requires WebGL).

§ Visibility from observer

Set your observer location to see the next 7 days of passes ≥ 10°. The values pass through the URL so the page stays shareable.

No JS? Fill the form by hand. The geolocation button needs JavaScript.